Theta_e
283 283 283 282 282 282 282 281 281 281 280 280 280 280 280 281 280 279 279 279 278 279 279 278 278 278 277 278 278 278 278 278 279 278 277 277 277 277 278 277 277 277 277 277 278 278 278 278 278 279 279 279 279 279 279 280 280 280 280 280 280 280 279 279 278 279 281 282 284 284 285 284 284 283 283 284 284 285 287 285 285 285 285 286 286
282 282 282 281 280 280 279 279 279 278 278 278 278 278 278 278 278 278 278 279 278 278 278 278 278 278 278 278 278 278 278 278 278 278 278 278 278 279 278 277 277 277 277 277 277 278 277 277 277 278 278 278 278 278 279 279 279 279 279 279 279 280 280 279 278 279 278 281 280 283 283 283 283 285 283 284 284 285 285 285 285 284 285 285 285
279 280 279 280 279 279 278 278 278 277 277 277 277 278 277 277 277 277 277 277 277 277 277 277 277 278 278 278 278 278 278 277 277 277 277 277 277 277 278 277 277 277 276 277 277 277 276 276 277 277 278 277 278 278 278 278 278 278 279 279 279 280 280 280 279 278 278 279 281 281 282 282 282 284 283 283 284 284 284 285 285 286 285 285 285
277 278 278 277 277 276 276 276 277 277 277 277 277 277 277 277 277 277 277 277 277 277 277 277 277 277 277 277 277 277 277 277 277 276 276 276 276 277 277 277 277 276 276 276 276 276 276 276 277 277 277 277 277 277 278 278 277 278 278 278 278 279 280 279 280 279 279 278 280 280 281 281 281 283 283 283 282 283 283 284 284 284 285 285 284
277 277 277 277 276 276 276 276 276 276 276 276 276 276 276 276 276 276 276 277 277 277 277 277 277 276 277 276 277 276 277 277 276 276 276 276 276 276 276 276 276 276 276 276 278 277 276 276 277 277 277 276 277 277 277 277 278 278 277 278 278 278 279 279 279 279 279 278 279 280 280 280 281 282 282 282 282 282 282 282 283 283 284 285 285
276 276 276 276 276 276 276 275 276 275 275 275 275 275 275 275 275 275 276 275 275 276 275 276 276 276 276 276 276 276 276 276 276 276 276 276 276 276 276 276 276 276 276 277 277 277 276 276 277 277 277 276 276 277 277 277 277 277 277 278 278 278 278 278 278 278 278 278 278 278 280 279 280 280 281 281 280 281 282 282 282 281 282 283 284
277 277 276 276 276 276 275 275 275 275 275 275 275 274 274 274 274 274 275 274 274 274 274 274 274 275 275 275 275 275 275 275 275 275 275 275 275 275 276 276 276 276 276 277 277 277 277 277 277 277 277 277 277 277 277 277 277 277 277 277 278 278 277 277 278 277 277 277 278 278 278 279 279 279 280 281 280 281 280 280 281 282 282 281 282
277 276 276 275 275 275 275 275 275 274 274 274 274 273 273 273 273 273 273 272 272 272 272 272 272 273 273 273 273 273 273 273 273 274 274 274 275 275 275 276 276 276 276 277 277 277 277 277 277 277 277 277 277 277 277 277 277 277 278 278 277 277 277 277 277 277 277 277 277 277 278 278 278 279 280 278 278 279 279 279 279 280 281 281 281
275 275 274 274 274 274 274 274 273 273 273 273 272 272 271 271 271 271 271 270 271 271 271 271 270 270 271 271 271 272 272 272 273 273 273 274 275 275 275 275 275 275 275 275 276 276 276 277 277 277 278 280 281 281 281 282 280 278 279 279 278 277 277 277 277 277 276 276 276 277 277 277 278 278 277 277 278 279 280 279 278 280 281 281 281
273 273 273 273 273 273 273 273 272 272 271 271 270 270 269 269 269 269 269 269 269 269 269 269 269 269 269 269 270 270 270 271 272 275 276 275 274 274 274 273 273 273 274 274 274 275 275 276 276 278 279 279 280 281 282 282 282 281 279 279 279 278 277 277 276 276 276 275 276 276 276 276 277 277 277 278 279 279 279 278 278 280 280 280 281
272 272 272 272 272 272 272 271 270 270 269 269 268 267 268 267 267 266 267 267 267 267 267 267 268 268 268 268 267 268 268 269 272 274 276 276 274 273 273 273 273 273 273 272 272 273 273 274 274 276 276 277 277 279 280 280 281 281 282 282 282 280 278 278 278 277 276 276 276 276 276 276 277 278 278 278 279 279 279 279 279 279 279 278 277
271 271 272 271 271 270 269 268 267 267 267 266 266 265 265 265 265 265 265 265 265 266 265 266 266 266 266 266 266 266 266 269 271 273 274 275 275 273 273 272 272 272 272 272 272 272 272 272 273 274 274 274 275 275 276 278 279 279 280 281 281 282 283 280 279 278 278 277 276 277 277 276 277 278 278 279 278 279 279 279 279 279 279 278 278
269 270 270 270 269 268 267 266 265 265 265 264 264 263 263 263 263 263 263 263 264 264 264 264 264 265 265 264 264 264 264 268 270 272 273 274 275 274 272 272 271 271 271 271 271 271 271 271 271 271 271 274 273 272 272 272 275 277 278 278 279 280 280 282 282 280 280 279 278 278 278 278 278 278 279 279 280 278 278 279 279 279 279 279 279
268 268 268 268 267 267 266 264 264 263 263 263 263 262 261 261 262 262 262 263 262 262 262 262 263 263 263 263 263 263 263 266 270 272 273 273 274 274 271 271 271 270 270 270 270 269 269 268 268 268 270 270 271 271 271 271 271 272 273 273 273 275 278 280 280 281 281 279 279 278 280 281 279 281 281 282 280 279 279 278 279 279 279 279 280
267 268 267 266 265 264 264 263 262 262 262 262 261 261 261 260 261 261 261 261 261 261 261 261 261 261 261 262 261 261 262 267 270 271 272 273 274 273 270 270 269 268 268 268 268 268 268 269 269 269 269 269 270 271 271 271 271 271 271 272 272 273 273 274 275 277 278 278 278 278 279 280 280 280 281 281 281 281 281 280 281 280 281 281 280
267 266 265 265 264 265 263 262 261 261 261 260 260 260 260 260 260 260 260 260 260 261 261 260 260 260 260 260 260 260 261 267 269 270 271 272 273 269 268 267 267 267 267 268 268 268 269 269 269 269 269 269 272 274 274 273 272 272 272 273 274 274 275 277 279 279 278 278 278 279 279 280 282 280 280 280 280 280 281 282 282 281 280 279 278
265 265 264 264 263 263 262 261 260 260 260 259 259 259 259 259 259 260 259 259 260 259 259 259 259 259 259 259 259 259 259 263 268 269 270 272 270 267 267 266 266 266 266 267 267 268 268 268 268 268 268 268 271 274 275 274 271 270 271 272 272 273 273 275 278 280 280 281 282 282 283 284 285 285 286 286 284 283 281 279 278 280 278 277 278
264 263 263 262 263 262 261 260 260 259 258 258 258 259 259 259 259 259 259 258 258 258 259 258 258 258 258 258 259 258 259 263 267 269 270 270 270 267 266 265 265 265 266 267 267 267 268 270 270 268 268 268 272 274 275 274 272 272 272 272 272 272 273 275 276 277 280 281 281 281 282 282 283 283 284 284 285 284 281 279 280 280 278 278 277
263 262 263 263 262 260 260 259 259 258 258 258 258 257 258 258 258 258 258 258 258 258 258 258 257 258 258 258 260 260 259 261 265 267 269 270 268 267 266 266 265 265 265 266 267 267 267 269 270 271 270 271 275 275 276 274 272 271 271 270 269 269 271 272 272 273 274 275 276 277 278 279 279 279 279 282 283 282 281 281 282 281 279 279 279
263 262 262 262 260 259 259 258 258 257 258 258 257 257 258 257 257 258 257 257 257 257 257 257 257 257 258 258 258 259 258 259 261 267 268 270 271 267 267 266 265 265 265 265 265 266 267 267 269 273 274 274 275 276 276 276 273 272 272 270 270 269 272 272 272 272 272 273 274 275 276 277 277 278 279 279 280 280 280 280 280 281 280 280 281
262 261 261 260 258 258 257 257 257 257 256 257 257 257 257 257 257 257 256 256 256 256 256 256 256 257 257 258 258 258 258 258 260 267 268 270 271 270 267 266 266 266 266 266 266 266 267 268 268 271 274 275 275 275 276 276 276 273 272 271 271 273 275 273 274 276 274 274 274 274 274 275 276 277 277 278 278 278 279 280 280 280 280 280 280
261 259 258 258 257 256 256 256 256 256 255 255 255 256 256 256 256 256 256 256 255 255 256 256 256 256 257 257 257 258 259 261 260 264 268 269 270 272 268 268 268 268 267 267 268 268 268 268 268 271 274 275 275 276 276 276 277 274 273 277 278 278 275 274 274 273 273 272 272 272 272 272 273 274 276 276 277 279 279 279 280 280 281 281 281
260 258 257 256 255 255 255 254 255 254 254 255 254 255 255 255 255 255 255 255 255 255 255 255 255 255 256 256 257 257 258 259 264 263 267 269 271 271 272 271 273 270 268 267 268 268 269 269 269 273 274 275 275 276 276 277 276 274 277 277 277 277 276 273 272 271 271 271 271 270 271 271 271 272 274 274 276 277 278 279 280 280 280 281 282
257 256 255 254 254 254 253 253 254 253 254 254 254 254 254 254 254 254 254 254 254 254 255 255 255 255 255 255 256 257 258 259 262 266 265 269 270 272 272 273 274 270 270 269 269 269 269 269 270 273 275 276 276 277 277 277 275 276 277 276 276 276 273 272 271 270 270 269 268 267 267 268 269 270 271 273 273 275 276 277 279 280 280 281 281
254 253 253 252 252 253 253 253 253 253 253 254 253 254 254 254 254 254 253 254 254 254 254 254 254 254 254 255 256 257 258 260 260 263 268 269 270 271 272 273 273 274 270 269 270 270 272 275 275 276 276 276 277 276 275 274 275 275 276 276 275 272 270 269 268 267 266 266 266 266 267 268 269 270 271 272 273 274 274 276 277 279 280 281 281
252 251 251 252 252 252 252 253 253 253 253 253 253 253 253 254 254 254 253 254 253 253 253 254 254 254 255 256 257 258 260 261 262 263 265 266 267 269 271 272 273 273 273 271 274 275 275 276 276 276 275 274 272 270 270 270 274 275 275 274 270 269 268 267 266 266 265 266 266 266 267 268 269 270 271 272 272 272 273 273 275 276 277 278 279
252 251 252 252 252 252 252 253 253 253 252 253 253 253 254 253 253 254 254 253 253 253 254 255 255 256 257 258 259 260 261 262 263 264 264 265 266 267 267 267 270 271 269 269 270 269 270 271 271 273 274 275 275 275 274 273 271 270 268 268 267 267 267 267 266 266 266 266 267 268 269 269 270 270 269 270 270 271 273 273 274 275 277 278 278
251 250 251 251 252 252 252 255 255 254 253 253 253 253 254 253 253 253 254 255 255 255 256 257 257 258 258 260 261 261 262 263 264 264 265 266 267 268 269 269 269 268 268 269 268 269 269 271 271 270 270 269 269 269 269 268 268 267 266 266 266 267 268 269 270 268 267 267 267 267 267 267 267 267 268 269 269 271 272 273 274 274 276 277 276
251 250 250 250 251 253 253 253 253 253 253 253 253 254 254 254 254 255 257 258 258 257 257 258 260 261 262 263 263 263 263 263 265 269 269 272 270 269 269 269 270 270 272 275 272 271 270 269 268 267 266 265 264 263 263 263 263 264 264 264 264 264 264 264 264 264 265 265 265 265 265 266 266 267 268 268 269 271 272 273 274 275 276 277 275
249 249 251 251 251 252 253 252 252 253 253 253 253 254 258 261 261 260 260 263 266 268 268 264 265 265 264 265 265 263 263 265 270 272 272 273 273 273 273 274 274 273 274 274 271 267 266 264 264 262 261 261 260 260 260 260 260 261 261 264 263 262 263 263 263 263 264 265 265 265 265 266 266 267 267 268 269 270 272 273 273 275 274 275 275
251 251 250 251 253 253 252 252 253 252 253 253 253 253 253 255 261 263 264 264 266 267 268 268 269 269 266 264 265 269 270 271 271 272 272 272 273 273 274 274 273 272 272 268 265 263 261 260 259 259 259 259 259 259 260 260 260 260 261 261 262 262 263 263 263 264 264 265 265 265 266 266 266 267 267 267 268 269 270 272 273 274 275 275 275
250 251 251 251 253 253 252 253 253 253 252 253 252 253 253 253 255 260 263 264 265 266 266 267 267 268 268 267 266 265 268 270 271 271 272 272 272 272 272 272 270 270 270 268 260 258 258 258 258 258 259 259 259 260 260 260 260 261 261 261 261 262 263 263 264 264 264 265 265 265 265 266 266 266 266 267 268 268 270 271 272 273 274 276 277
250 249 251 252 252 253 253 252 252 252 252 252 252 253 253 253 253 254 257 261 263 264 264 265 266 267 268 268 269 268 268 269 270 271 272 271 270 270 270 269 268 268 266 260 257 257 257 258 258 259 259 259 259 259 260 260 260 261 261 261 261 262 263 264 265 264 264 264 265 265 266 266 267 268 268 269 269 269 270 271 272 274 275 276 277
249 249 250 252 252 252 252 252 252 252 252 252 253 253 254 254 253 253 253 254 255 258 261 263 265 266 266 267 268 268 269 269 270 271 270 269 269 269 268 263 265 265 263 258 257 256 257 257 258 258 258 259 259 260 259 260 260 260 261 261 261 262 263 264 264 264 264 264 265 265 266 266 267 267 267 268 269 270 270 271 272 273 274 276 276
249 251 254 254 253 252 252 253 253 252 252 253 254 254 254 254 254 253 253 252 253 253 254 256 260 264 263 264 266 268 268 269 270 270 269 268 268 268 265 257 256 256 257 255 256 256 256 257 257 258 258 258 258 259 259 259 259 260 260 260 261 261 262 263 263 264 264 265 265 265 266 266 267 268 268 269 269 270 271 272 273 275 275 275 275
247 250 251 252 251 252 253 253 253 253 254 254 255 254 254 253 253 253 253 253 253 253 254 255 255 260 264 265 265 266 268 269 269 268 267 267 267 266 256 255 255 255 255 256 256 256 257 257 257 257 258 258 258 258 259 259 260 260 260 261 261 262 262 262 263 264 264 265 266 266 267 267 268 268 268 268 269 269 271 273 274 274 274 275 276
248 249 251 251 252 251 251 252 254 254 257 256 255 253 253 252 253 253 252 252 253 253 253 254 254 255 258 257 259 264 267 268 268 266 265 265 265 259 253 254 254 255 255 255 256 257 256 257 257 257 258 258 258 259 260 260 260 261 262 262 262 263 263 263 264 265 265 265 266 266 267 267 268 268 269 269 270 272 273 273 272 273 273 274 274
249 248 249 250 250 251 252 252 254 256 254 252 252 251 252 252 252 252 252 252 253 253 252 252 254 253 253 255 259 259 262 265 264 261 260 260 257 255 255 255 255 255 255 256 257 257 257 257 258 258 259 259 259 260 261 261 262 262 262 263 264 264 267 266 266 266 266 266 266 267 268 269 269 270 271 270 270 271 272 272 272 272 272 273 273
246 253 255 256 257 255 253 253 252 251 251 251 251 251 252 252 252 251 251 251 251 251 252 252 252 253 254 255 256 261 262 258 255 254 254 255 255 255 255 255 255 255 256 256 257 257 257 257 258 259 259 260 260 261 262 262 263 263 264 264 265 265 266 266 266 266 267 267 268 269 269 269 269 270 270 271 272 273 272 271 271 271 271 271 272
249 247 251 255 254 255 254 253 252 250 250 250 250 250 251 251 251 251 251 251 251 251 251 252 252 253 254 255 258 262 259 256 254 253 254 254 255 255 255 255 256 256 256 256 257 257 258 258 259 259 260 261 261 262 263 264 264 265 265 265 265 265 265 266 267 267 268 269 269 269 269 269 270 271 271 272 273 273 272 271 271 272 272 271 270
246 248 252 255 255 253 251 251 250 250 249 250 250 249 249 251 251 252 250 250 251 251 252 252 252 253 254 258 264 264 258 254 253 253 253 254 254 255 255 256 256 256 257 257 257 258 258 259 259 260 261 262 263 264 264 265 265 265 265 265 265 265 265 266 266 267 268 269 270 270 270 270 271 272 272 273 274 274 272 271 271 271 270 270 270
247 248 249 250 251 250 249 249 250 252 250 250 249 249 250 251 250 250 250 251 251 251 251 252 252 252 256 260 262 263 257 253 252 253 253 253 254 254 255 255 256 256 257 257 258 258 259 259 260 261 262 263 263 264 265 265 265 265 265 265 265 265 265 265 266 266 267 267 269 270 271 271 272 272 273 274 271 271 271 270 270 270 270 270 269
249 249 249 250 249 248 248 248 249 248 248 248 249 251 252 251 249 250 250 250 251 251 251 252 252 253 253 258 257 258 252 251 253 252 252 253 253 254 254 254 255 256 257 258 258 259 259 259 260 261 262 263 264 265 265 265 266 266 265 265 265 265 265 265 265 266 266 267 268 269 269 270 270 270 270 269 269 268 268 269 269 268 268 269 268
248 249 249 249 248 248 248 247 247 248 248 251 252 251 251 250 249 248 248 249 250 250 251 251 251 252 251 253 253 252 251 251 251 251 252 253 253 253 253 254 254 255 256 257 258 259 259 259 260 261 262 263 265 265 266 267 267 267 266 265 265 265 265 265 265 265 266 266 267 268 268 269 269 269 269 269 269 269 268 268 268 268 268 267 267
245 246 246 245 246 246 246 247 248 248 250 250 247 248 249 247 249 248 249 249 250 250 250 251 251 250 251 250 250 250 250 250 252 252 252 252 252 252 253 253 254 254 255 256 257 258 258 259 259 260 261 263 264 265 266 267 268 268 267 266 265 265 265 265 265 266 266 266 266 267 267 268 268 268 268 268 268 268 268 268 268 267 267 266 266
245 245 246 246 246 247 247 245 248 247 247 247 248 248 248 247 247 247 249 249 249 250 250 250 249 249 250 249 250 250 250 250 250 251 252 252 252 252 252 253 254 254 255 256 257 257 258 259 259 260 261 262 264 265 266 267 268 268 268 268 267 266 266 266 266 266 265 265 266 266 267 267 267 267 267 267 267 267 267 267 267 266 266 266 266
245 245 246 246 246 247 248 248 247 247 247 247 247 247 248 247 247 249 249 250 250 250 249 249 249 248 249 249 249 249 250 250 250 251 251 251 251 252 252 253 253 254 255 255 256 257 257 258 259 260 261 262 263 264 266 267 268 268 268 268 268 267 266 266 266 265 265 265 265 265 265 266 266 266 266 266 266 266 266 266 265 265 265 265 265
244 245 245 247 246 246 246 246 247 250 248 248 247 248 248 248 247 248 247 248 248 248 248 248 247 247 249 249 249 249 250 250 250 251 251 251 251 251 252 252 253 254 254 255 256 256 257 258 258 259 260 261 262 264 265 266 267 267 268 268 268 267 266 266 265 265 265 264 265 265 265 265 265 265 265 265 264 265 264 264 264 264 264 264 265
245 245 246 246 247 247 247 247 248 247 247 247 247 247 247 246 246 246 247 247 247 247 246 247 247 248 248 248 249 249 249 250 250 250 250 251 251 251 251 252 253 253 254 254 255 255 256 257 258 259 260 261 261 263 264 265 266 267 267 268 268 267 266 266 265 264 264 264 264 264 264 264 264 264 264 264 264 264 264 264 264 263 263 263 263
246 247 247 247 247 248 247 247 247 246 246 245 246 245 247 246 245 246 247 247 247 247 246 247 247 247 247 248 249 249 249 249 249 250 250 251 251 251 252 252 252 253 253 254 254 255 255 256 257 258 259 260 261 262 263 264 265 266 267 268 268 267 267 266 266 265 264 263 262 263 263 263 264 264 264 264 264 263 263 263 263 262 261 260 260
247 248 247 247 247 247 246 246 246 245 244 245 244 244 246 246 246 246 246 246 246 246 247 247 247 247 248 247 248 248 249 249 249 250 250 250 251 251 252 252 252 253 253 254 254 255 255 255 256 257 258 259 260 261 262 264 265 267 268 268 268 268 268 267 266 265 265 263 262 262 262 262 262 262 262 262 262 263 262 262 261 260 260 259 259
Wind_Speed
4 4 4 4 4 5 5 6 6 5 5 5 5 5 5 4 4 4 4 5 4 5 4 4 4 4 4 5 6 6 7 8 7 6 6 6 6 6 6 6 7 8 6 8 5 5 7 7 8 8 6 7 7 7 7 7 7 7 6 6 7 6 6 7 10 14 8 6 9 10 7 7 9 5 8 7 7 7 8 8 8 7 8 8 9
5 5 4 4 4 4 4 3 3 4 5 4 4 4 4 4 4 4 4 4 3 3 3 3 3 4 4 4 4 4 5 5 5 5 7 8 9 7 7 8 8 8 7 9 9 6 6 9 9 8 5 7 8 8 7 7 7 7 8 7 7 9 6 6 9 10 15 5 6 8 8 5 12 7 6 11 8 6 8 9 7 7 8 8 7
2 1 3 4 5 5 5 6 4 4 4 4 4 5 5 5 5 6 6 6 6 5 6 6 7 7 7 7 6 6 6 6 5 4 5 6 7 8 7 7 9 9 10 10 9 7 8 9 10 8 5 7 9 8 6 7 6 7 9 7 8 9 8 7 7 11 13 12 5 7 6 5 7 12 8 7 10 6 10 9 8 7 6 7 8
3 4 4 3 3 3 4 3 5 5 6 6 7 7 7 7 6 7 6 6 7 6 5 6 6 6 6 6 5 5 6 5 5 4 5 6 7 8 8 7 7 8 9 9 9 9 9 10 11 10 7 9 10 9 7 6 7 7 8 8 8 9 9 6 8 10 10 14 9 7 6 7 6 9 8 7 9 9 8 10 6 7 9 8 8
2 2 2 3 4 5 5 5 5 6 6 5 6 6 6 6 6 6 7 7 7 7 7 5 6 6 7 8 9 8 7 7 8 7 6 5 6 8 9 8 8 8 9 9 9 9 9 10 11 10 9 10 11 10 8 9 8 8 9 9 8 8 8 7 8 8 10 13 14 8 5 7 6 7 7 9 10 9 8 9 8 8 9 9 8
1 3 3 4 4 5 4 4 4 4 4 4 4 4 5 5 5 5 5 6 6 5 6 6 6 8 7 7 8 8 8 7 7 8 8 8 8 8 9 9 9 9 10 10 10 9 10 11 11 10 10 11 12 11 10 11 10 10 10 10 10 8 9 9 8 8 9 12 12 14 7 8 8 6 7 7 8 11 11 10 7 6 8 10 9
4 5 5 5 4 3 3 3 3 2 3 3 3 3 3 4 4 4 4 4 5 6 5 6 6 6 8 7 8 8 9 7 7 8 8 7 8 8 9 9 10 9 9 10 10 10 10 10 11 10 11 11 12 12 12 11 10 12 11 11 10 9 10 10 10 10 10 11 12 11 12 8 7 10 6 7 8 8 11 11 11 8 7 7 10
5 4 4 3 2 1 1 0 1 1 1 2 3 4 4 5 5 5 5 6 6 6 7 8 7 6 7 7 7 7 8 8 7 7 7 7 8 8 9 9 10 9 9 10 10 10 11 11 11 11 12 11 11 11 11 11 11 12 11 10 9 10 11 10 10 10 10 11 11 13 11 11 7 6 6 3 5 8 8 8 11 12 11 6 7
3 3 2 2 1 1 1 1 2 3 4 5 6 7 7 6 6 6 6 6 6 7 7 7 9 9 7 7 8 7 7 7 6 7 8 9 8 9 10 11 11 12 13 12 12 11 11 11 11 11 12 16 21 20 18 17 12 12 12 10 10 10 11 10 10 10 10 10 12 11 12 13 11 9 8 7 9 12 9 4 7 10 11 9 8
3 2 3 2 2 2 3 3 4 5 7 8 7 7 7 8 8 8 8 7 7 7 7 8 7 8 10 10 8 7 7 6 9 17 15 11 11 11 11 12 12 11 12 12 12 11 11 11 12 20 24 24 24 25 25 25 24 18 14 12 12 11 11 11 11 11 11 12 12 12 13 13 13 11 10 10 8 6 7 7 9 11 10 10 10
3 3 2 2 2 3 4 5 6 7 6 6 6 7 9 8 8 8 8 7 8 7 8 8 7 8 8 9 10 9 8 7 16 18 19 22 15 12 12 12 11 11 12 12 14 13 12 11 10 14 17 19 18 25 25 27 26 26 27 26 21 16 13 14 14 11 12 12 12 12 13 15 16 13 12 10 8 9 9 9 9 8 10 10 12
3 3 3 3 4 5 4 5 6 5 5 5 5 5 6 6 6 7 7 8 7 7 7 7 8 8 7 8 8 8 9 12 18 20 21 22 20 15 14 13 11 10 10 9 11 11 12 11 10 9 9 11 13 14 18 24 26 27 28 27 27 28 26 19 16 14 13 13 13 14 13 15 15 13 12 10 10 8 9 9 9 10 11 11 9
3 3 3 3 4 4 5 5 4 4 4 4 5 5 5 6 6 7 7 6 7 8 8 8 8 8 9 10 11 9 9 14 19 22 22 22 22 19 13 14 14 14 14 13 11 11 10 10 10 10 10 22 17 13 14 17 22 27 28 29 28 29 29 31 30 22 16 15 14 16 15 15 16 15 13 12 7 10 8 10 9 10 10 11 12
3 3 3 4 4 4 5 4 4 4 4 5 5 6 5 6 5 5 6 6 7 7 6 9 8 8 8 9 10 10 10 14 21 22 22 23 23 20 14 15 14 15 15 14 12 10 10 10 11 11 10 10 11 13 12 14 14 12 12 11 12 19 25 28 29 30 25 18 16 17 17 14 15 14 14 10 11 11 10 12 9 11 10 13 12
3 3 3 3 4 3 5 4 4 4 5 5 6 6 6 6 6 5 6 7 7 8 8 8 8 7 9 9 10 12 9 18 20 23 23 24 24 21 13 13 13 13 13 13 14 14 14 13 13 12 10 10 10 14 14 14 12 13 14 14 15 15 15 15 14 12 12 13 17 19 19 18 17 17 16 14 14 12 12 14 14 13 12 10 11
3 2 3 3 3 3 3 4 4 4 5 5 5 7 6 6 7 7 6 6 5 5 7 5 8 9 8 9 11 13 11 19 21 22 23 23 25 15 12 13 13 13 13 13 13 13 13 13 13 14 14 14 17 23 21 17 15 15 15 13 12 13 13 14 20 21 19 18 17 17 16 18 22 20 19 18 16 15 14 13 12 12 12 13 14
2 2 2 2 3 3 3 4 5 5 5 6 6 6 7 7 6 5 8 7 7 7 7 7 7 8 10 9 10 12 12 16 21 23 23 24 19 12 12 11 12 13 13 13 13 13 13 13 13 14 15 14 19 25 26 25 17 16 14 14 15 15 16 15 21 27 29 30 32 33 33 34 33 34 34 35 26 19 14 15 16 13 14 15 15
2 2 2 2 3 3 4 4 5 6 5 6 7 7 6 5 6 5 7 9 9 7 8 9 7 6 9 11 9 12 13 16 22 23 23 24 20 14 11 11 12 12 13 13 12 13 14 21 19 16 17 16 24 27 27 21 15 14 12 13 13 13 13 13 11 12 21 27 29 31 31 31 32 34 35 34 33 26 17 18 14 11 14 13 16
2 2 2 2 3 3 3 4 4 5 6 7 6 7 7 7 6 6 6 7 9 8 8 9 9 7 7 10 15 15 13 15 21 22 24 23 18 12 10 9 12 12 12 13 12 12 13 15 24 23 22 22 29 25 25 20 14 13 14 16 17 15 13 12 13 14 12 11 13 14 16 20 20 18 19 32 33 30 21 19 14 14 15 15 15
1 1 2 2 3 3 3 4 4 5 7 7 6 6 6 6 6 7 7 6 8 8 8 8 11 10 8 9 10 10 12 12 14 24 23 23 23 14 9 9 11 13 12 12 12 11 13 12 16 24 25 24 25 27 26 27 18 14 12 12 12 14 10 13 14 13 13 12 14 13 14 13 12 14 13 14 16 17 18 16 15 14 15 15 13
1 1 2 3 3 3 3 3 6 6 5 7 6 6 5 7 7 7 8 7 7 9 9 9 10 11 9 9 9 10 9 12 14 22 23 24 25 20 10 11 10 10 11 12 11 11 10 9 7 17 26 27 27 27 27 26 24 17 13 13 14 18 21 15 15 19 14 12 12 11 11 10 11 10 13 13 14 15 15 16 15 15 16 17 16
1 1 2 2 3 4 4 4 4 5 5 5 7 7 5 6 7 7 7 7 9 10 9 9 10 11 9 8 9 10 11 16 13 18 23 24 24 26 15 12 14 12 12 8 9 8 10 11 10 18 27 28 27 28 29 27 28 17 15 24 28 28 20 15 11 10 9 11 9 11 9 10 9 11 11 12 12 13 14 14 16 16 16 17 18
2 1 2 3 4 4 4 5 6 4 5 5 6 8 6 6 6 5 7 8 9 10 9 9 9 11 10 8 8 9 9 10 18 15 20 23 25 25 26 20 24 16 11 12 11 12 10 12 13 25 30 30 29 30 29 31 24 16 27 28 27 29 25 12 11 10 10 9 10 9 9 8 10 10 11 10 10 12 12 13 14 15 16 17 19
1 1 3 4 4 4 4 4 5 5 5 6 6 7 8 7 6 5 6 7 8 9 8 8 9 10 11 11 9 8 9 9 13 19 18 23 24 26 25 26 26 16 13 11 10 11 12 14 17 29 30 29 29 28 28 26 20 27 27 28 28 25 14 10 8 8 10 11 10 12 11 8 8 10 10 10 11 12 14 14 13 15 16 17 18
1 2 3 4 4 4 4 5 5 5 5 5 6 6 7 5 7 4 5 7 7 8 9 7 8 9 10 11 11 10 10 9 9 13 21 22 25 25 25 27 27 28 18 12 13 12 20 30 33 31 29 29 30 29 24 24 29 28 28 26 25 11 9 9 11 10 10 11 11 11 10 10 11 11 11 10 12 13 13 13 12 14 13 17 18
2 4 4 4 4 4 5 5 5 5 5 5 5 5 7 7 6 7 5 7 7 7 9 8 8 8 10 10 11 11 11 10 10 10 10 14 16 22 27 28 27 28 26 21 27 32 31 30 33 32 29 24 18 12 11 12 21 25 27 25 13 11 10 10 10 10 11 11 12 14 13 10 10 11 12 11 10 13 11 12 11 12 12 14 14
2 3 4 4 4 4 4 5 5 4 4 4 4 5 6 6 6 6 6 8 7 7 8 8 9 9 10 11 11 11 11 10 10 11 10 9 10 14 16 15 21 23 17 14 17 17 21 23 18 23 21 26 26 24 22 21 17 13 10 9 9 9 9 8 9 11 11 11 11 11 10 11 11 12 10 12 11 12 10 14 12 13 12 11 13
3 4 4 4 4 4 5 6 6 6 5 5 6 6 5 5 6 6 7 8 8 8 8 9 10 11 11 11 11 11 11 10 9 9 11 12 11 11 11 11 10 9 11 10 11 14 13 15 17 11 9 9 9 8 8 8 10 11 10 9 10 11 13 20 20 14 12 11 11 11 12 11 10 12 11 12 13 13 10 13 12 13 11 11 13
2 3 4 3 5 4 4 4 5 5 6 5 5 6 7 7 7 8 8 8 8 7 10 11 9 9 9 10 10 11 11 10 9 16 18 22 20 16 13 11 11 11 15 24 18 11 8 7 7 8 8 9 10 10 9 9 9 9 11 10 9 10 9 8 10 11 12 11 12 11 12 10 12 9 11 11 12 11 11 12 13 13 13 13 15
2 3 3 4 4 4 4 4 4 5 5 6 7 7 8 14 11 9 7 13 17 19 16 11 11 10 9 9 8 11 11 13 24 29 27 27 27 28 25 26 25 20 23 28 18 11 9 9 9 9 9 9 9 10 10 9 10 10 9 12 12 9 10 10 10 12 11 11 11 12 9 10 10 12 10 14 11 12 12 16 13 12 13 13 14
2 3 3 4 4 4 4 4 4 4 4 5 5 8 10 8 11 14 13 13 15 18 18 20 21 19 13 10 12 22 24 25 25 25 26 26 27 27 26 25 25 24 24 17 10 8 9 9 9 8 8 8 8 9 10 10 10 10 10 11 9 11 12 11 10 11 11 12 12 11 12 10 11 10 13 11 15 14 12 10 13 13 13 12 14
3 4 4 4 5 5 4 4 4 4 4 4 5 6 7 11 12 8 8 12 16 16 17 18 18 18 20 18 14 11 18 22 24 24 25 26 25 25 25 24 23 23 21 16 7 7 7 8 8 9 9 10 10 10 9 9 10 10 11 11 10 9 10 11 11 10 12 12 12 12 12 11 12 11 12 13 15 12 11 11 11 11 12 14 15
3 4 4 4 4 5 4 4 4 4 5 6 5 5 6 7 9 14 14 11 11 14 15 16 18 20 20 20 20 17 18 20 24 24 23 23 23 22 23 23 21 18 17 9 7 8 8 8 9 9 9 9 10 9 10 10 11 11 10 11 12 11 11 12 14 13 12 13 11 11 9 11 10 12 12 12 13 12 12 12 11 10 12 14 13
4 4 4 4 5 4 4 4 4 4 4 5 5 5 4 5 7 7 10 15 13 7 7 14 18 20 20 20 19 20 21 21 21 22 22 21 22 22 21 15 17 14 12 8 8 8 9 9 9 9 10 10 10 11 11 10 10 11 11 11 12 12 12 12 11 12 11 12 12 12 12 11 12 11 10 9 11 11 12 13 12 13 13 13 9
3 4 7 6 4 4 4 4 4 4 4 4 4 4 5 5 5 6 8 9 10 12 13 13 16 20 17 15 17 21 21 21 20 20 21 20 21 22 19 10 12 10 8 4 5 6 8 8 9 10 9 10 10 10 10 11 10 11 11 12 12 12 12 12 12 11 11 10 11 10 12 12 11 12 12 11 11 10 11 14 16 16 12 9 6
3 3 4 4 4 4 4 4 4 4 5 4 3 3 5 5 6 6 6 6 8 10 10 8 8 14 21 18 19 21 22 20 19 20 19 20 20 21 11 11 10 9 9 8 7 7 6 7 8 9 10 9 10 9 10 10 11 11 11 11 12 12 11 10 12 12 11 10 11 11 11 10 10 10 10 12 14 14 14 12 4 3 3 2 6
4 4 4 4 4 4 5 4 4 4 5 4 4 4 4 5 6 5 6 6 7 7 8 9 9 9 9 8 12 19 20 18 18 18 18 18 19 10 5 6 7 9 9 10 9 9 9 9 8 9 10 10 10 10 11 11 11 12 12 12 11 12 11 11 11 11 10 10 10 10 11 10 10 10 10 11 11 11 10 7 3 3 3 4 4
5 4 5 5 4 5 4 4 4 5 4 3 3 3 4 4 5 4 6 7 7 7 9 9 8 8 10 10 12 9 10 14 14 11 11 11 9 7 7 6 6 7 9 9 9 9 10 10 9 10 10 10 11 12 12 11 11 11 11 12 12 11 18 16 16 13 11 10 10 10 9 9 7 8 9 10 12 11 9 5 5 1 1 3 4
4 5 8 8 6 4 4 2 2 3 3 3 3 4 5 5 4 5 6 6 6 6 7 7 8 8 9 9 10 10 10 8 8 8 8 7 6 6 6 6 7 7 7 8 8 8 9 10 10 10 10 10 10 11 10 10 11 10 11 11 12 12 13 12 12 10 9 9 9 9 8 8 8 8 8 9 10 9 6 4 2 1 2 1 1
3 3 4 8 5 5 4 3 3 3 5 3 3 3 3 4 5 5 6 6 6 6 6 7 8 8 9 10 9 10 9 9 8 9 9 9 9 9 7 8 8 9 9 9 9 9 10 10 10 10 11 11 11 10 10 10 10 11 11 12 12 13 14 12 13 12 10 9 9 8 8 8 8 8 9 9 10 8 5 4 3 3 4 4 2
3 4 4 5 6 4 3 4 4 4 4 4 4 4 4 5 5 6 5 6 6 6 6 7 7 8 8 12 20 17 8 8 9 9 9 9 9 10 10 9 9 10 10 10 9 9 9 10 11 11 11 11 11 11 10 10 11 11 12 12 12 13 13 13 13 12 13 11 9 8 7 7 8 8 8 8 8 6 4 2 2 0 1 3 4
3 3 3 4 4 3 4 5 5 5 4 5 3 3 5 5 5 5 6 5 6 6 7 7 7 7 11 19 17 18 9 6 6 8 8 8 8 8 8 9 8 8 9 10 10 10 11 11 11 11 12 12 12 12 11 11 11 12 12 12 13 13 12 13 12 11 12 11 11 10 8 7 8 8 9 8 3 1 0 1 2 2 3 4 4
3 3 3 4 3 3 4 4 4 4 4 4 3 4 5 5 5 6 5 6 5 5 5 7 8 7 8 12 14 14 6 6 5 7 6 7 7 8 8 8 9 9 9 9 9 9 9 10 10 10 11 12 12 12 11 10 10 11 11 12 13 14 13 12 12 11 11 11 10 10 10 8 6 4 4 4 3 3 3 2 3 3 3 4 5
3 3 4 3 4 3 4 3 3 4 3 4 4 5 5 5 5 5 5 5 5 5 5 6 6 7 8 9 8 7 6 6 6 6 7 7 7 8 8 8 9 9 9 9 9 9 9 10 10 10 11 11 12 13 12 10 10 10 11 12 11 12 13 11 10 11 11 10 10 10 9 9 7 5 4 4 3 3 3 3 3 3 4 4 5
2 2 2 3 3 4 4 3 3 3 4 4 3 5 6 4 5 5 5 5 6 5 5 5 5 6 8 7 7 7 7 6 7 7 7 7 8 8 8 8 9 9 9 9 9 10 9 10 10 10 12 11 12 12 12 12 11 10 10 11 12 11 9 11 12 12 11 11 9 9 9 8 8 7 6 5 3 3 4 4 4 4 5 5 6
2 2 4 3 4 5 4 4 5 2 2 3 4 5 5 5 6 5 5 5 5 5 5 5 5 5 6 7 6 7 7 6 6 6 7 6 7 8 7 8 8 9 8 9 9 9 9 10 10 10 11 11 12 12 12 12 12 11 11 10 11 11 11 11 10 11 11 11 9 8 8 8 8 7 8 6 5 5 5 5 5 5 5 6 6
2 2 3 4 4 5 5 4 2 2 2 3 4 4 5 6 6 5 5 6 5 6 5 5 5 6 6 6 6 7 7 6 7 7 7 7 7 8 8 8 9 9 9 9 8 9 9 10 10 10 11 11 11 13 12 11 11 11 11 11 11 13 12 12 11 10 10 10 10 8 8 8 8 7 8 7 7 6 6 5 5 5 5 5 6
3 4 4 4 3 4 4 3 3 4 4 5 4 5 6 6 5 5 6 5 5 5 5 5 5 5 7 6 6 6 6 6 6 7 7 7 7 7 8 8 8 9 9 9 9 9 9 9 10 10 10 11 11 11 12 11 11 12 11 11 12 13 16 17 11 12 10 10 10 9 9 8 8 8 7 8 7 6 6 6 6 5 5 6 6
3 4 4 3 4 5 5 3 4 4 4 4 4 5 6 5 5 4 5 5 5 5 6 5 6 6 5 6 6 6 6 7 7 6 6 7 7 7 7 8 8 8 8 8 9 9 9 9 10 10 10 10 10 11 11 12 11 11 12 11 15 20 19 20 14 13 14 10 9 10 9 8 9 9 9 8 8 7 7 7 7 6 6 6 7
3 4 4 4 5 5 5 4 4 4 5 5 5 5 5 5 5 6 5 5 5 5 6 5 5 6 6 6 7 7 6 7 7 7 7 7 7 7 7 8 8 8 8 8 9 9 9 9 9 9 10 10 10 10 11 11 11 10 10 13 19 19 18 19 18 20 15 9 10 8 9 9 9 8 8 7 7 8 8 7 7 7 7 7 7
4 4 4 5 5 5 4 5 5 5 5 5 6 6 5 6 6 5 5 5 6 6 6 6 6 6 6 6 7 6 7 7 6 6 7 7 7 8 8 8 8 8 8 8 8 9 9 9 9 9 9 9 9 10 10 11 11 12 16 19 19 20 19 18 13 16 19 13 8 9 8 9 9 9 8 8 7 8 8 8 8 7 7 6 6
Wind_Direction
53 41 33 29 36 24 10 9 5 3 7 11 5 356 352 353 354 349 350 338 358 346 346 336 329 325 326 323 324 324 329 327 333 332 328 320 318 314 316 321 320 314 312 309 306 302 303 300 300 298 299 298 291 292 294 290 293 284 273 268 265 252 236 244 264 277 275 203 256 281 290 306 292 253 275 276 273 269 265 267 269 265 261 257 258
26 15 20 31 44 13 13 12 4 6 1 3 353 341 344 347 351 346 340 318 353 324 322 319 318 315 310 305 302 303 302 305 314 326 322 321 318 319 318 317 312 309 313 309 312 313 303 302 298 296 296 289 290 290 282 287 285 287 284 269 262 268 231 241 260 267 285 259 255 275 285 280 287 280 258 285 278 271 267 270 265 255 259 261 260
4 15 29 29 16 16 18 12 358 10 5 2 353 354 353 352 1 360 352 347 348 352 344 341 337 334 328 322 318 314 312 310 309 311 303 300 300 301 303 304 302 304 306 301 300 304 300 296 294 295 295 288 286 282 277 273 271 267 273 268 265 265 259 235 257 275 278 279 245 262 268 263 266 291 287 265 279 268 278 275 271 271 263 257 258
11 26 17 21 28 18 24 0 15 13 13 3 2 357 357 355 354 358 351 351 348 340 343 333 328 323 314 309 305 301 304 302 302 297 290 291 293 293 295 290 283 282 280 284 289 290 289 291 288 291 289 283 282 282 273 259 262 267 268 269 259 264 265 250 239 256 276 286 273 253 255 272 264 271 282 276 279 282 262 274 268 265 267 261 255
24 47 56 42 32 37 22 19 18 11 6 1 355 352 353 353 355 355 352 350 347 340 337 341 329 327 325 319 317 317 314 314 312 306 298 289 288 289 289 285 280 276 273 275 275 276 276 273 278 283 285 282 283 282 282 280 274 271 270 272 271 266 268 258 257 250 269 274 283 271 246 255 249 260 273 281 286 282 278 268 268 264 266 259 259
72 76 55 58 40 38 21 15 15 4 360 352 350 346 351 357 356 352 354 343 338 335 329 333 329 319 318 315 311 310 310 312 308 305 305 303 296 291 288 286 285 282 280 278 279 277 274 275 277 278 280 279 281 283 284 282 282 277 274 274 274 275 276 275 265 263 263 271 276 287 266 260 270 244 250 255 268 284 284 278 274 260 261 272 259
58 61 55 61 52 29 18 1 356 356 347 344 352 11 13 4 4 357 349 343 334 333 333 326 324 315 312 312 311 311 311 311 308 304 302 297 291 290 289 286 281 280 277 276 276 275 272 271 272 272 271 271 274 276 281 281 278 278 275 276 275 278 276 275 277 275 273 277 280 274 280 263 236 266 246 233 243 248 271 290 285 271 259 255 275
62 64 70 67 73 21 354 322 39 12 25 37 33 22 11 6 3 354 348 346 341 339 334 327 320 319 310 311 309 313 311 310 308 307 305 304 301 294 291 290 289 285 283 280 277 274 273 272 270 270 268 268 270 272 271 275 276 276 273 272 272 271 271 273 273 272 273 275 274 284 281 283 268 238 260 254 259 265 240 248 273 284 275 255 248
82 96 103 99 62 42 11 32 34 33 27 26 20 9 3 357 351 348 346 341 341 335 331 330 325 321 317 315 317 315 312 311 313 317 314 309 306 304 302 299 297 296 292 288 282 277 276 275 274 272 271 272 272 274 275 275 274 276 276 271 268 266 268 268 267 269 268 267 274 273 277 279 273 269 254 233 232 244 257 212 245 259 273 280 271
108 98 79 58 34 33 40 34 25 25 24 16 9 360 352 349 344 342 342 341 336 333 331 330 322 321 323 321 319 320 314 313 315 314 314 313 311 305 298 292 289 286 286 286 284 278 275 277 279 281 284 284 284 284 284 282 279 276 277 277 274 269 265 264 264 261 261 264 263 269 272 270 272 265 260 250 245 247 252 239 247 261 274 272 278
103 98 82 61 50 43 40 28 23 26 16 8 360 354 348 343 339 335 337 338 334 335 331 324 327 325 318 315 315 314 311 311 315 316 314 310 306 299 294 290 283 279 279 282 285 288 285 280 279 285 287 287 288 287 286 285 283 281 279 277 276 274 273 268 262 256 259 257 259 261 260 267 267 266 262 264 251 242 242 242 240 249 257 269 273
76 65 57 46 46 41 33 28 23 17 8 359 350 344 338 337 333 333 331 331 331 329 324 323 323 320 314 312 308 311 312 314 315 312 309 307 305 301 296 293 290 282 273 271 276 280 283 286 285 287 284 289 293 294 291 289 287 286 284 283 280 277 273 271 272 270 260 260 261 257 260 260 267 267 268 261 258 254 247 244 240 235 247 250 252
71 60 49 55 44 37 28 21 10 3 355 347 338 336 336 330 331 332 328 323 321 323 321 322 317 318 316 314 313 311 304 310 310 309 307 306 304 303 295 290 290 288 289 289 287 287 290 294 296 291 292 294 292 287 287 286 284 283 282 281 278 275 274 271 269 268 273 271 266 264 257 263 265 263 259 263 265 263 257 251 242 242 240 247 247
74 68 65 56 38 34 25 13 360 347 341 338 338 334 333 328 323 318 315 319 318 314 314 313 313 314 315 312 306 304 300 306 307 307 307 305 303 302 294 293 290 288 290 292 293 295 296 293 288 284 282 282 280 282 281 280 281 277 269 261 263 270 271 269 269 268 268 269 270 267 265 260 262 267 267 266 265 262 262 260 254 252 246 245 247
63 71 64 51 38 27 17 1 346 337 336 335 333 329 326 321 322 321 320 316 318 314 316 315 311 311 309 307 301 298 296 303 305 305 304 303 303 304 299 298 294 293 293 293 293 292 293 292 290 288 287 281 278 283 281 276 269 265 264 263 263 265 265 267 268 268 265 259 260 263 267 268 270 273 276 273 266 263 259 261 261 261 261 262 259
81 69 53 38 32 18 6 344 338 334 331 331 328 323 322 319 320 320 313 307 298 301 300 300 303 305 302 300 298 295 296 305 304 303 303 304 307 306 303 297 294 292 292 294 294 294 294 294 296 296 296 297 298 298 296 296 294 290 288 285 276 270 265 264 271 272 266 262 260 261 262 262 264 263 265 265 264 262 262 263 261 258 259 257 254
86 63 46 26 18 7 355 341 330 331 328 325 321 318 320 319 316 315 308 307 307 306 300 299 299 298 298 295 295 294 295 303 304 304 306 307 309 302 297 294 294 295 294 294 293 292 292 294 294 295 295 293 295 293 291 291 285 281 277 275 273 272 274 274 273 272 272 272 272 272 271 272 271 269 267 266 264 261 257 256 250 245 248 252 253
85 51 24 14 2 354 346 339 327 325 324 317 314 312 310 303 301 311 305 307 305 301 302 299 291 288 292 293 292 294 294 301 306 306 306 305 305 302 298 294 290 292 293 292 293 292 293 294 293 292 291 286 287 287 287 287 278 277 278 284 289 293 297 301 296 283 279 277 273 270 270 271 273 275 274 274 273 273 270 263 259 249 247 242 251
60 36 355 5 346 343 334 331 321 315 311 306 307 306 308 304 302 301 290 292 292 299 298 295 294 288 282 286 294 294 292 299 305 304 303 303 304 297 292 285 290 294 296 295 292 292 289 285 285 287 288 289 290 290 292 295 293 293 289 283 281 280 284 287 284 287 284 284 283 285 281 275 271 266 264 267 266 265 262 265 266 257 254 249 248
75 38 3 348 337 328 324 321 310 305 301 301 300 294 297 300 298 299 297 292 295 297 293 292 293 293 292 288 289 288 292 294 300 301 303 303 303 300 287 291 291 290 288 286 285 274 268 265 270 285 290 292 294 295 294 291 288 283 279 276 273 275 268 268 266 265 267 261 266 267 268 273 274 274 275 273 269 263 258 256 259 262 265 264 254
50 17 352 322 314 309 310 302 296 291 285 290 293 294 292 293 298 298 299 298 291 293 295 293 292 291 291 288 287 288 284 291 294 300 302 303 302 302 289 285 279 276 276 274 268 268 264 260 251 283 293 294 294 294 293 291 289 283 275 271 268 271 277 272 273 275 277 281 279 280 280 278 274 267 266 265 264 262 256 251 248 248 250 255 256
37 347 309 305 299 299 293 287 280 282 287 289 293 290 286 284 289 294 293 298 299 295 296 295 294 293 292 288 287 288 287 289 290 294 297 300 302 301 300 287 287 282 281 274 273 270 278 282 279 285 290 292 292 291 290 288 287 286 280 284 288 293 297 296 295 296 290 290 284 281 282 282 282 282 277 276 276 274 266 254 247 242 241 246 249
331 306 301 292 289 286 284 283 286 287 288 286 288 293 294 292 288 287 295 297 294 294 296 297 297 297 297 293 289 287 286 283 289 287 292 298 301 301 299 298 298 298 292 286 282 280 277 279 278 284 285 285 284 283 283 289 295 296 297 297 296 295 295 294 292 288 284 283 285 283 284 284 287 283 280 282 283 282 281 276 266 257 249 246 245
305 294 280 277 280 280 279 282 281 283 283 287 284 286 291 289 287 288 286 288 295 296 297 296 297 297 302 303 297 292 288 280 281 287 291 294 301 301 300 300 301 295 290 284 284 279 279 277 274 278 281 284 289 294 299 302 300 299 298 296 295 294 292 291 292 293 291 287 283 282 280 272 270 273 273 274 274 276 277 278 280 278 269 257 248
266 273 271 275 278 274 279 278 281 279 277 279 290 287 289 290 297 288 279 287 285 290 294 295 294 296 299 298 300 296 289 283 279 281 291 295 299 299 298 298 298 298 296 287 278 275 281 285 287 290 294 299 299 300 299 295 292 290 288 288 292 296 300 296 293 291 284 283 282 280 276 275 271 271 274 273 273 272 270 270 267 268 269 267 258
269 268 273 275 277 287 295 289 278 276 275 271 265 272 280 292 289 292 287 280 280 285 290 293 289 291 290 292 292 291 290 290 291 289 286 284 284 286 290 293 293 294 292 291 292 292 292 292 292 293 294 291 289 279 266 272 278 286 294 299 299 291 282 281 275 274 272 274 274 274 274 273 266 270 272 271 271 269 269 270 269 267 265 265 259
252 269 275 280 285 289 292 296 296 285 282 280 271 273 276 274 276 282 281 282 282 277 281 286 290 288 290 291 291 294 295 297 298 297 292 288 285 284 286 281 279 280 278 273 275 276 275 276 274 275 279 287 292 295 295 296 296 292 284 282 281 279 278 271 271 271 272 268 268 266 268 273 277 279 277 276 270 268 265 269 265 264 261 260 260
244 261 275 283 289 288 288 290 293 300 291 287 292 288 273 260 266 266 274 278 283 284 281 283 286 289 289 290 293 295 296 298 296 301 302 293 288 288 283 286 288 277 278 271 263 263 264 268 273 279 287 287 288 285 287 292 292 296 291 289 286 284 282 283 283 279 276 274 275 281 280 281 278 277 277 273 271 268 259 259 257 260 255 258 258
263 278 280 286 285 283 281 284 287 291 296 284 262 258 279 283 273 264 246 244 248 239 225 253 268 273 281 293 303 304 308 307 306 305 303 308 309 307 305 306 304 300 297 308 316 327 332 325 321 312 315 311 310 305 306 304 301 298 298 297 292 290 289 286 282 277 277 281 280 278 279 277 276 273 274 272 270 269 265 265 265 264 263 259 261
268 276 277 279 282 288 285 285 286 286 287 295 300 288 269 286 285 285 283 289 291 296 300 299 304 304 303 303 306 308 307 304 307 310 311 311 313 313 311 309 312 317 325 330 332 330 329 323 318 320 317 321 311 309 305 303 300 298 291 296 293 286 282 278 274 277 279 277 276 277 275 278 277 277 270 272 270 269 271 272 267 262 261 263 262
262 272 281 275 278 282 288 290 282 281 284 295 298 304 310 301 298 294 292 299 307 309 310 309 312 314 315 309 308 308 308 308 310 314 317 318 315 315 319 325 327 331 332 331 337 335 332 327 319 315 308 303 303 302 303 302 301 299 297 294 283 281 282 275 271 274 274 272 273 269 271 269 273 278 282 285 285 284 283 277 279 273 264 256 253
247 266 266 276 285 286 281 282 292 295 296 293 298 306 310 317 318 307 308 320 318 318 316 320 322 324 323 323 320 309 314 318 321 322 320 323 328 331 330 334 340 337 337 354 348 336 328 319 316 316 314 310 307 305 301 298 298 297 298 295 289 282 282 277 282 276 276 274 274 275 274 273 274 272 271 273 275 271 266 267 261 261 260 256 246
235 262 261 276 281 287 290 289 292 293 302 305 305 305 309 319 320 322 322 328 325 320 321 324 329 332 333 330 327 324 325 326 325 327 335 339 338 337 339 346 344 346 350 354 343 332 330 325 319 314 313 305 305 305 306 304 302 299 296 292 292 290 286 282 285 277 273 272 271 268 265 266 266 271 274 275 277 277 276 273 270 260 260 250 232
233 246 266 272 281 283 284 283 288 288 282 286 283 292 295 300 308 310 317 324 332 323 303 321 330 336 336 334 332 332 331 329 330 340 346 343 341 343 349 342 337 352 359 344 338 332 327 321 317 316 313 310 309 308 305 302 299 296 295 290 287 287 285 284 276 272 267 269 268 269 269 265 267 269 268 265 264 266 266 266 263 262 252 230 203
248 261 267 272 268 273 275 279 282 281 279 279 281 291 300 306 306 309 313 316 313 316 323 326 330 335 333 331 332 333 332 332 340 349 347 346 346 349 346 337 345 346 354 348 325 314 314 316 313 312 311 308 304 302 300 299 296 296 293 292 291 286 287 287 283 277 273 270 265 264 266 267 264 266 268 268 265 266 273 275 268 249 220 197 177
250 254 254 259 265 263 268 268 269 271 274 271 289 303 306 305 306 301 300 292 298 307 309 315 314 317 322 327 330 332 332 336 347 350 348 348 351 354 346 343 340 339 334 331 327 317 307 302 305 304 304 299 300 298 297 297 296 294 291 291 292 291 289 285 284 281 277 273 270 271 269 263 262 267 274 277 280 279 275 270 260 3 20 202 189
242 250 255 255 254 261 264 261 257 260 287 311 309 303 298 292 293 292 289 294 299 296 300 310 317 314 318 306 317 323 322 341 347 347 346 347 350 349 323 320 320 321 326 328 327 325 322 317 312 307 306 306 305 302 302 300 297 296 297 295 286 290 287 282 277 276 275 275 271 266 264 263 263 264 263 268 270 272 283 297 313 55 62 62 55
233 242 245 246 242 253 259 254 260 298 305 291 287 288 291 293 293 293 299 301 301 308 312 313 315 316 319 320 319 305 319 340 339 338 339 343 343 344 338 325 322 319 319 318 321 320 316 313 313 312 308 307 306 308 308 304 305 303 304 301 301 297 305 298 288 280 273 267 266 264 260 258 259 269 275 279 283 283 284 293 313 333 93 114 115
244 262 279 290 291 270 253 271 294 299 286 285 287 292 299 302 303 301 299 295 300 305 303 307 309 311 312 315 316 313 333 343 348 341 336 332 330 329 328 327 324 322 316 314 314 316 312 312 311 309 305 305 305 305 306 306 311 311 313 313 315 317 318 316 308 294 280 270 269 267 266 268 267 265 263 267 273 273 255 249 232 161 96 84 141
247 261 273 287 284 291 298 301 292 288 282 289 288 289 300 299 294 297 298 301 304 306 305 310 310 306 313 317 313 333 348 339 333 331 334 337 340 341 340 338 336 332 329 326 325 323 321 317 315 315 314 312 311 310 311 315 319 321 322 323 322 323 323 324 327 321 305 285 275 271 268 268 269 273 275 277 281 271 245 234 230 204 184 168 153
233 245 264 276 286 295 310 291 276 270 270 272 283 295 285 284 289 292 289 288 293 298 302 300 296 300 306 317 329 340 355 334 326 330 333 335 335 337 337 337 336 332 330 327 325 323 323 322 322 321 321 319 317 318 317 321 327 329 329 328 326 325 327 329 330 327 329 319 297 278 270 266 265 268 273 278 279 270 230 199 179 163 57 90 117
236 249 254 258 276 276 274 272 267 280 285 285 287 287 283 287 287 283 284 290 293 297 302 297 295 297 308 321 331 341 347 322 319 321 326 329 328 328 328 328 328 327 325 325 326 326 326 325 324 324 323 324 324 323 323 324 332 336 335 333 331 330 326 331 330 325 325 324 325 314 296 284 277 272 272 276 266 340 325 127 123 114 107 109 113
231 236 247 263 264 260 257 264 276 277 279 284 288 281 286 292 286 280 283 284 287 296 297 301 305 309 311 321 331 336 331 316 323 322 318 321 322 323 324 325 324 322 321 317 317 319 319 318 319 323 324 323 324 325 325 322 328 335 337 334 334 334 333 331 330 327 325 328 329 326 327 322 324 332 2 18 14 33 56 58 72 87 104 118 115
223 240 252 258 259 261 262 263 265 266 272 285 294 298 297 287 280 280 277 281 287 286 286 291 296 309 311 320 327 329 326 331 325 324 320 318 320 322 323 320 321 320 321 320 320 322 320 320 321 322 323 324 327 329 329 326 330 335 340 338 335 332 337 331 329 333 330 328 329 335 340 336 338 344 9 20 38 67 43 52 75 86 93 91 98
210 225 244 254 255 251 261 256 256 269 284 300 300 291 287 281 282 277 279 284 288 289 287 287 299 303 309 315 323 322 322 320 318 317 317 318 319 319 320 320 321 320 319 319 320 322 322 322 321 324 325 328 330 332 334 334 337 340 342 345 345 338 333 336 336 333 331 330 331 334 342 347 348 349 350 359 23 61 69 63 74 90 85 83 94
200 219 239 239 248 254 256 256 256 266 287 288 285 286 281 278 270 273 282 284 287 289 290 296 298 301 304 307 308 311 312 313 313 312 312 317 318 319 318 318 316 315 314 314 316 319 320 321 322 321 324 327 331 331 333 336 339 343 345 349 352 347 339 336 335 339 340 340 338 337 345 350 359 356 0 356 7 31 52 68 66 74 91 98 98
205 216 230 234 245 250 255 258 267 270 266 272 271 273 281 277 274 280 285 290 290 294 298 300 306 308 305 304 305 307 310 313 312 315 315 313 313 313 315 317 317 317 318 317 316 318 320 322 322 321 322 324 327 330 332 339 343 342 346 350 353 356 353 348 344 346 346 345 348 352 355 358 1 0 5 8 13 21 33 42 52 75 75 90 96
208 221 230 237 242 251 254 252 262 276 281 275 274 272 275 278 285 286 287 289 293 292 294 297 295 293 298 296 295 295 301 300 301 302 308 309 312 311 313 314 316 316 316 316 319 321 322 321 321 322 324 327 327 330 331 333 341 345 344 349 354 358 359 358 353 354 353 353 354 356 2 6 9 9 8 11 18 21 36 32 36 43 62 73 81
211 219 232 240 241 245 250 254 258 264 264 268 276 280 276 279 279 282 283 286 287 288 284 290 294 291 286 287 293 298 298 300 302 307 309 309 309 310 310 311 312 313 315 316 317 320 320 320 321 322 323 324 325 327 330 331 335 341 343 347 352 356 3 5 4 360 358 359 359 1 2 10 15 17 18 19 20 22 35 34 37 41 47 51 56
221 226 234 239 245 249 249 248 254 258 259 262 265 273 279 280 283 283 286 291 291 288 285 281 283 286 290 298 305 304 305 305 307 308 307 307 307 308 310 311 312 314 316 315 316 316 317 317 320 319 322 323 326 328 330 330 329 333 337 344 353 357 5 8 5 7 8 2 0 3 5 12 13 19 18 23 25 35 36 38 44 48 51 57 57
226 235 236 239 245 247 245 249 256 251 250 257 256 262 274 278 275 280 285 285 283 284 288 285 285 287 288 284 288 291 295 294 295 298 303 306 310 312 313 314 316 316 313 314 316 316 317 319 320 320 320 322 326 326 329 328 329 332 344 348 356 1 5 13 10 5 9 10 3 3 10 15 20 19 20 18 27 39 50 53 53 51 55 55 60